SILO ALERT LOG
| Silo ID | Alert Type | Alert Message | Silo Type | Points | Depth (mm) | Strength | Temperature (°C) | Humidity (%) | Height (mm) | Volume (㎥) | Weight (t) | Flag | Time |
|---|---|---|---|---|---|---|---|---|---|---|---|---|---|
| DJHNR14 | Humidity | 습도센서 측정값이 80% 초과 | 호퍼 | 234 | 589 | 339 | 4.2 | 99.9 | 9790 | 157.225 | 99.397 | 29 | 2024-01-03 14:39:30.000 |
| DJHNR12 | Humidity | 습도센서 측정값이 80% 초과 | 호퍼 | 453 | 6904 | 302 | 4.7 | 82.8 | 3475 | 21.038 | 13.3 | 0 | 2024-01-03 14:39:30.000 |
| DJSAD18 | Humidity | 습도센서 측정값이 80% 초과 | 평 | 113 | 1433 | 5646 | 6.6 | 80.8 | 6146 | 612.071 | 386.951 | 11 | 2024-01-03 14:39:29.000 |
| DJHNR03 | Temperature | 온도센서 상태 이상 | 호퍼 | 0 | 15500 | 0 | -999 | -999 | -119 | 0 | 0 | 31 | 2024-01-03 14:39:24.000 |
| DJSSD12 | Temperature | 온도센서 상태 이상 | 호퍼 | 0 | 11350 | 0 | -999 | -999 | -120 | 0 | 0 | 31 | 2024-01-03 14:39:24.000 |
| DJSAD03 | Humidity | 습도센서 측정값이 80% 초과 | 평 | 447 | 1741 | 6193 | 4.9 | 84.5 | 7038 | 291.352 | 184.193 | 0 | 2024-01-03 13:39:41.000 |
| DJSAD01 | Humidity | 습도센서 측정값이 80% 초과 | 평 | 452 | 1543 | 7038 | 3.5 | 88.7 | 7236 | 299.557 | 189.38 | 0 | 2024-01-03 13:39:40.000 |
| DJSAD02 | Humidity | 습도센서 측정값이 80% 초과 | 평 | 380 | 1129 | 4364 | 4.2 | 87.6 | 7650 | 316.689 | 200.211 | 11 | 2024-01-03 13:39:39.000 |
| DJSAD05 | Humidity | 습도센서 측정값이 80% 초과 | 평 | 474 | 1491 | 8972 | 4.5 | 81.7 | 7288 | 301.718 | 190.746 | 0 | 2024-01-03 13:39:39.000 |
| DJSAD12 | Humidity | 습도센서 측정값이 80% 초과 | 평 | 0 | 7700 | 0 | 4.7 | 86.1 | -120 | -17.075 | 0 | 31 | 2024-01-03 13:39:34.000 |
| DJSSD04 | Temperature | 온도센서 상태 이상 | 평 | 0 | 8200 | 0 | -999 | -999 | -120 | -16.702 | 0 | 31 | 2024-01-03 13:39:33.000 |
| DJSSD09 | Temperature | 온도센서 측정값이 0도 미만 | 평 | 110 | 2930 | 2540 | -45.4 | 0 | 4749 | 661.086 | 417.939 | 11 | 2024-01-03 13:39:32.000 |
| DJSAD08 | Humidity | 습도센서 측정값이 80% 초과 | 평 | 594 | 2542 | 4914 | 8.6 | 83.3 | 5037 | 716.851 | 453.193 | 12 | 2024-01-03 13:39:32.000 |
| DJHNR06 | Humidity | 습도센서 측정값이 80% 초과 | 평 | 466 | 2704 | 3127 | 5.3 | 81.6 | 4975 | 708.043 | 447.625 | 0 | 2024-01-03 13:39:32.000 |
| DJSSD05 | Temperature | 온도센서 측정값이 0도 미만 | 평 | 825 | 2555 | 4880 | -45.4 | 43.7 | 5524 | 768.95 | 486.13 | 0 | 2024-01-03 13:39:32.000 |
| DJHNR01 | Humidity | 습도센서 측정값이 80% 초과 | 호퍼 | 471 | 4307 | 4919 | 6.9 | 99.9 | 11072 | 472.84 | 298.929 | 13 | 2024-01-03 13:39:32.000 |
| DJSAD07 | Humidity | 습도센서 측정값이 80% 초과 | 평 | 642 | 2546 | 2701 | 6 | 85.4 | 5033 | 716.227 | 452.798 | 0 | 2024-01-03 13:39:32.000 |
| DJSSD01 | Humidity | 습도센서 측정값이 80% 초과 | 평 | 807 | 2566 | 4756 | 7.2 | 82.6 | 5513 | 767.303 | 485.089 | 0 | 2024-01-03 13:39:32.000 |
| DJHNR12 | Humidity | 습도센서 측정값이 80% 초과 | 호퍼 | 451 | 6915 | 294 | 5.3 | 82.8 | 3464 | 20.806 | 13.153 | 0 | 2024-01-03 13:39:31.000 |
| DJSSD11 | Humidity | 습도센서 측정값이 80% 초과 | 호퍼 | 443 | 7377 | 146 | 5 | 85.2 | 3852 | 29.165 | 15.895 | 11 | 2024-01-03 13:39:31.000 |
[첫 페이지] [10204] [10205] [10206] [10207] 10208 [10209] [10210] [10211] [10212] [마지막 페이지]